DW7011 Weather Reports


time (UTC)temp
C
wind
direction
speed
KPH
gust
KPH
rain 1hr
cm
rain 24hr
cm
rain mn
cm
humidity
%
barometer
mb
20260510064332 9 10 0.0 0.0 0.00 0.36 0.00 92 1011.4
20260510063331 10 11 0.0 1.6 0.00 0.36 0.00 93 1011.3
20260510061347 10 36 4.8 9.7 0.00 0.36 0.00 94 1011.7
20260510055332 10 23 0.0 1.6 0.00 0.36 0.00 93 1011.3
20260510053323 10 96 0.0 1.6 0.00 0.36 0.00 93 1011.0
20260510052339 10 96 0.0 1.6 0.00 0.36 0.00 93 1011.0
20260510045334 10 96 0.0 0.0 0.00 0.36 0.00 93 1011.2
20260510044351 10 96 0.0 0.0 0.00 0.36 0.00 92 1011.2
20260510041330 11 96 0.0 0.0 0.00 0.36 0.00 91 1011.4
20260510040327 11 96 0.0 0.0 0.00 0.36 0.00 91 1011.4
20260510035322 11 96 0.0 1.6 0.00 0.36 0.36 91 1011.4
20260510033336 11 96 0.0 1.6 0.00 0.36 0.36 90 1011.4
20260510032335 11 97 0.0 1.6 0.00 0.36 0.36 89 1011.3
20260510031325 11 97 0.0 1.6 0.00 0.36 0.36 89 1011.5
20260510030325 12 97 0.0 0.0 0.00 0.36 0.36 88 1011.4
20260510025322 12 97 0.0 1.6 0.00 0.36 0.36 88 1011.3
20260510023337 12 96 0.0 3.2 0.00 0.36 0.36 87 1011.2
20260510022331 12 136 3.2 4.8 0.00 0.36 0.36 87 1011.1
20260510020342 13 147 0.0 4.8 0.00 0.36 0.36 86 1011.1
20260510015338 13 122 1.6 4.8 0.00 0.36 0.36 87 1011.0
20260510014330 12 126 0.0 1.6 0.00 0.36 0.36 87 1010.8
20260510013327 12 125 0.0 1.6 0.00 0.36 0.36 86 1010.8
20260510012323 12 125 0.0 1.6 0.00 0.36 0.36 85 1010.7
20260510011337 12 125 0.0 1.6 0.00 0.36 0.36 85 1010.4
20260510010335 13 125 0.0 1.6 0.00 0.36 0.36 84 1010.4
20260510005323 13 125 0.0 1.6 0.00 0.36 0.36 84 1010.4
20260510004341 13 125 0.0 1.6 0.00 0.36 0.36 83 1010.2
20260510003338 13 125 0.0 0.0 0.00 0.36 0.36 81 1010.2
20260510002334 14 125 0.0 1.6 0.00 0.36 0.36 80 1010.0
20260510001349 14 125 0.0 1.6 0.00 0.36 0.36 79 1009.9
20260510000341 15 125 0.0 1.6 0.00 0.36 0.36 77 1009.8
20260509235337 15 124 0.0 3.2 0.00 0.36 0.36 75 1009.8
20260509234335 16 146 0.0 1.6 0.00 0.36 0.36 74 1009.9
20260509233335 16 157 1.6 4.8 0.00 0.36 0.36 73 1009.7
20260509231344 16 115 1.6 4.8 0.00 0.36 0.36 72 1009.8
20260509230327 16 129 1.6 6.4 0.00 0.36 0.36 72 1009.8
20260509225325 16 159 3.2 6.4 0.00 0.36 0.36 71 1009.9
20260509224340 16 75 3.2 8.0 0.00 0.36 0.36 71 1009.9
20260509223337 16 83 3.2 6.4 0.00 0.36 0.36 70 1009.8
20260509222323 17 162 3.2 6.4 0.00 0.36 0.36 70 1009.9
20260509221341 17 110 0.0 4.8 0.00 0.36 0.36 70 1010.0
20260509220337 17 135 0.0 3.2 0.00 0.36 0.36 70 1009.9
20260509214335 16 89 1.6 6.4 0.00 0.36 0.36 70 1010.1
20260509213330 17 115 1.6 3.2 0.00 0.36 0.36 70 1010.3
20260509212344 16 5 1.6 3.2 0.00 0.36 0.36 70 1010.5
20260509211330 17 112 1.6 3.2 0.00 0.36 0.36 70 1010.2
20260509210323 17 134 1.6 3.2 0.00 0.36 0.36 70 1010.1
20260509205338 17 81 0.0 4.8 0.00 0.36 0.36 68 1010.1
20260509203325 17 101 1.6 4.8 0.00 0.36 0.36 68 1010.2
20260509202344 16 115 0.0 3.2 0.00 0.36 0.36 70 1010.3
20260509201331 17 86 1.6 3.2 0.00 0.36 0.36 69 1010.3
20260509200328 17 304 1.6 4.8 0.00 0.36 0.36 69 1010.3
20260509194410 17 46 1.6 3.2 0.00 0.36 0.36 70 1010.7
20260509193337 16 133 1.6 6.4 0.00 0.36 0.36 73 1010.8
20260509192326 16 12 3.2 6.4 0.00 0.36 0.36 73 1010.9
20260509191325 15 274 0.0 6.4 0.00 0.36 0.36 74 1010.9
20260509185330 15 137 1.6 6.4 0.00 0.36 0.36 77 1011.1
20260509184331 15 129 3.2 8.0 0.00 0.36 0.36 78 1011.3
20260509181333 13 108 1.6 6.4 0.00 0.36 0.36 81 1011.9
20260509180349 13 155 1.6 6.4 0.00 0.36 0.36 84 1011.9
20260509175346 13 113 3.2 6.4 0.00 0.36 0.36 81 1012.0
20260509174333 13 160 3.2 4.8 0.00 0.36 0.36 81 1012.2
20260509173331 13 217 1.6 1.6 0.00 0.36 0.36 80 1012.4
20260509172327 13 138 0.0 4.8 0.00 0.36 0.36 82 1012.3
20260509171341 13 110 0.0 4.8 0.00 0.36 0.36 81 1012.3
20260509170328 13 143 3.2 6.4 0.00 0.36 0.36 80 1012.4
20260509162337 13 260 1.6 8.0 0.10 0.36 0.36 85 1012.5
20260509161327 13 144 0.0 3.2 0.18 0.36 0.36 87 1012.4
20260509160324 12 111 0.0 4.8 0.25 0.36 0.36 88 1012.0
20260509155338 12 111 1.6 4.8 0.30 0.36 0.36 87 1011.9
20260509153328 12 95 1.6 6.4 0.30 0.30 0.30 87 1012.8
20260509151343 13 175 1.6 3.2 0.18 0.18 0.18 84 1012.8
20260509150331 13 238 1.6 1.6 0.10 0.10 0.10 80 1012.8
20260509145327 13 236 0.0 8.0 0.03 0.03 0.03 75 1013.1
20260509144324 14 240 1.6 3.2 0.00 0.00 0.00 73 1012.9
20260509143341 14 327 1.6 9.7 0.00 0.00 0.00 71 1012.7
20260509142459 15 263 3.2 9.7 0.00 0.00 0.00 69 1012.8
20260509141332 15 235 1.6 4.8 0.00 0.00 0.00 70 1012.7
20260509140326 14 252 1.6 8.0 0.00 0.00 0.00 69 1012.4
20260509135339 14 249 3.2 6.4 0.00 0.00 0.00 70 1012.4
20260509134326 14 245 1.6 3.2 0.00 0.00 0.00 72 1012.1
20260509132337 13 257 4.8 6.4 0.00 0.00 0.00 72 1012.3
20260509131335 13 227 1.6 3.2 0.00 0.00 0.00 72 1012.0
20260509130331 13 255 0.0 3.2 0.00 0.00 0.00 72 1012.0
20260509125325 13 254 0.0 6.4 0.00 0.00 0.00 72 1012.0
20260509124341 13 250 3.2 4.8 0.00 0.00 0.00 72 1012.1
20260509123329 13 113 0.0 3.2 0.00 0.00 0.00 73 1012.1
20260509122327 13 245 0.0 3.2 0.00 0.00 0.00 73 1012.1
20260509121326 13 257 1.6 3.2 0.00 0.00 0.00 72 1012.1
20260509120344 13 117 0.0 3.2 0.00 0.00 0.00 72 1011.9
20260509115328 12 150 0.0 3.2 0.00 0.00 0.00 74 1011.8
20260509114329 12 119 0.0 1.6 0.00 0.00 0.00 74 1011.9
20260509112324 12 120 0.0 1.6 0.00 0.00 0.00 76 1011.6
20260509111343 12 121 0.0 3.2 0.00 0.00 0.00 77 1011.7
20260509110341 12 93 0.0 1.6 0.00 0.00 0.00 79 1011.7
20260509105324 11 89 1.6 3.2 0.00 0.00 0.00 79 1011.6
20260509103323 11 105 0.0 1.6 0.00 0.00 0.00 79 1011.4
20260509102340 11 105 1.6 1.6 0.00 0.00 0.00 79 1011.3
20260509100330 11 105 0.0 0.0 0.00 0.00 0.00 79 1011.3
20260509095329 11 105 0.0 1.6 0.00 0.00 0.00 80 1011.3
20260509094349 11 125 0.0 1.6 0.00 0.00 0.00 80 1011.3
20260509093336 11 126 0.0 0.0 0.00 0.00 0.00 82 1011.3
20260509091329 11 126 0.0 0.0 0.00 0.00 0.00 80 1011.4
20260509085327 11 126 0.0 1.6 0.00 0.00 0.00 79 1011.6
20260509084345 11 126 0.0 1.6 0.00 0.00 0.00 79 1011.7
20260509083343 11 126 0.0 0.0 0.00 0.00 0.00 80 1011.8
20260509082331 11 126 0.0 1.6 0.00 0.00 0.00 81 1011.8
20260509081325 11 126 0.0 1.6 0.00 0.00 0.00 81 1011.9
20260509075338 11 126 0.0 0.0 0.00 0.00 0.00 82 1011.8
20260509074331 11 126 0.0 1.6 0.00 0.00 0.00 81 1011.9
20260509073348 11 126 0.0 1.6 0.00 0.00 0.00 80 1011.9
20260509072333 11 126 0.0 1.6 0.00 0.00 0.00 80 1011.9
20260509071328 11 126 0.0 3.2 0.00 0.00 0.00 80 1012.0
20260509070327 11 50 0.0 1.6 0.00 0.00 0.00 79 1012.0
20260509065344 11 50 0.0 3.2 0.00 0.00 0.00 79 1012.0